sat.trackr.live / text

‹ back to catalog

KUIPER-00433

NORAD 68869 · 2026-095F

PAYLOAD ACTIVE UNKNOWN

§ Identity

Operator
Country
US
Launch date
2026-04-28
Launch site
AFETR
Launch vehicle
Mass (kg)
RCS (m²)

External: N2YO · Heavens-Above · Gunter

§ Orbital elements

Epoch: 2026-05-25T00:00:02.000160Z

Period
95.57 min
Inclination
51.8845°
Eccentricity
0.0006579
Mean motion
15.06802562 rev/d
Perigee alt
541.4 km
Apogee alt
550.5 km
Semi-major
6,924.1 km
B*
2.6489e-3
RAAN
356.5865°
Arg perigee
225.4327°
Mean anomaly
170.8528°
Rev number
413

§ Raw data

KUIPER-004331 68869U 26095F   26145.00002315  .00039872  00000+0  26489-2 0  99972 68869  51.8845 356.5865 0006579 225.4327 170.8528 15.06802562  4134

JSON: /api/v1/satellites/68869 · /tle

For live sub-satellite position, see the globe view (requires WebGL).

§ Visibility from observer

Set your observer location to see the next 7 days of passes ≥ 10°. The values pass through the URL so the page stays shareable.

No JS? Fill the form by hand. The geolocation button needs JavaScript.